1491847200.97,54289,18.19,73682.0,-1.91,-31.91,-32.45,0,*51
1491847202.21,54290,18.19,73680.5,-1.89,-31.95,-32.51,0,*51
1491847203.44,54291,18.19,73682.0,-1.89,-31.67,-32.19,0,*51
1491847204.67,54292,18.19,73676.5,-1.89,-31.73,-32.13,0,*5D
1491847205.88,54293,18.19,73678.5,-1.89,-31.79,-32.39,0,*5E
1491847207.11,54294,18.19,73676.8,-1.87,-31.79,-32.13,0,*5F
1491847208.36,54295,18.19,73678.5,-1.87,-31.73,-32.13,0,*54
1491847209.62,54296,18.19,73674.0,-1.87,-31.91,-32.51,0,*5D
1491847210.83,54297,18.19,73674.3,-1.85,-31.79,-32.23,0,*5D
1491847212.09,54298,18.19,73672.3,-1.87,-32.07,-32.69,0,*54
1491847213.35,54299,18.19,73678.0,-1.83,-31.91,-32.39,0,*58
1491847214.64,54300,18.19,73676.3,-1.83,-31.57,-32.19,0,*51
1491847215.9,54301,18.19,73672.8,-1.85,-31.61,-31.91,0,*50
1491847217.18,54302,18.19,73678.0,-1.83,-31.39,-31.91,0,*58
1491847218.44,54303,18.19,73678.5,-1.83,-31.67,-32.29,0,*52
1491847219.7,54304,18.19,73676.3,-1.83,-31.91,-32.39,0,*5D
1491847220.9,54305,18.19,73680.8,-1.81,-32.01,-32.57,0,*5C
1491847222.14,54306,18.19,73678.0,-1.81,-32.01,-32.45,0,*5C
1491847223.42,54307,18.19,73680.0,-1.77,-31.91,-32.29,0,*54
1491847224.65,54308,18.19,73682.3,-1.81,-31.91,-32.39,0,*53
1491847225.94,54309,18.19,73678.8,-1.77,-31.73,-32.29,0,*56
1491847227.2,54310,18.19,73680.8,-1.77,-31.39,-31.79,0,*56
1491847228.43,54311,18.19,73680.3,-1.81,-31.67,-32.07,0,*5F
1491847229.7,54312,18.19,73680.0,-1.77,-31.45,-31.95,0,*5D
1491847230.99,54313,18.19,73676.8,-1.77,-31.57,-32.19,0,*58
1491847232.28,54314,18.19,73674.0,-1.77,-31.57,-31.91,0,*5C
1491847233.51,54315,18.19,73674.8,-1.75,-31.29,-31.57,0,*5C
1491847234.78,54316,18.19,73676.5,-1.75,-31.23,-31.73,0,*53
1491847236.06,54317,18.19,73670.3,-1.73,-31.51,-32.19,0,*5E
1491847237.34,54318,18.19,73670.8,-1.73,-31.85,-32.29,0,*5B
1491847238.62,54319,18.19,73674.0,-1.73,-31.85,-32.45,0,*50
1491847239.91,54320,18.19,73668.5,-1.73,-32.07,-32.63,0,*57
1491847241.12,54321,18.19,73670.0,-1.75,-32.13,-32.69,0,*5F
1491847242.36,54322,18.19,73682.3,-1.75,-32.35,-32.85,0,*5A
1491847243.61,54323,18.19,73678.3,-1.73,-32.23,-32.75,0,*55
1491847244.88,54324,18.19,73674.8,-1.73,-32.01,-32.45,0,*51
1491847246.16,54325,18.19,73670.3,-1.73,-31.91,-32.45,0,*5A
1491847247.41,54326,18.19,73670.3,-1.73,-31.91,-32.35,0,*5E
1491847248.67,54327,18.19,73680.3,-1.73,-31.91,-32.23,0,*58
1491847249.92,54328,18.19,73674.0,-1.73,-32.07,-32.57,0,*58
1491847251.18,54329,18.13,73670.0,-1.73,-32.13,-32.63,0,*5B
1491847252.46,54330,18.19,73676.0,-1.73,-32.07,-32.63,0,*56
1491847253.7,54331,18.19,73676.0,-1.73,-32.01,-32.39,0,*5E
1491847254.99,54332,18.19,73674.8,-1.73,-31.85,-32.45,0,*59
1491847256.2,54333,18.19,73674.3,-1.71,-32.01,-32.57,0,*56
1491847257.43,54334,18.19,73672.8,-1.71,-32.07,-32.57,0,*57
1491847258.67,54335,18.19,73672.0,-1.71,-32.07,-32.57,0,*56
1491847259.93,54336,18.19,73674.3,-1.71,-31.73,-32.29,0,*5C
1491847261.19,54337,18.19,73676.3,-1.71,-31.73,-32.29,0,*5D
1491847262.45,54338,18.19,73674.5,-1.69,-32.07,-32.57,0,*52
1491847263.71,54339,18.19,73676.8,-1.71,-32.19,-32.79,0,*59
1491847264.97,54340,18.19,73678.5,-1.71,-32.29,-32.79,0,*54
1491847266.2,54341,18.19,73676.5,-1.71,-32.13,-32.63,0,*57
1491847267.46,54342,18.19,73676.5,-1.69,-32.35,-32.85,0,*51
1491847268.7,54343,18.19,73678.5,-1.71,-32.23,-32.75,0,*51
1491847269.93,54344,18.19,73676.3,-1.71,-32.23,-32.79,0,*5A
1491847271.19,54345,18.19,73676.3,-1.71,-32.29,-32.79,0,*51
1491847272.4,54346,18.19,73674.3,-1.71,-32.39,-32.91,0,*55
1491847273.62,54347,18.19,73672.8,-1.71,-32.57,-33.15,0,*51
1491847274.85,54348,18.19,73672.0,-1.71,-32.63,-33.15,0,*59
1491847276.11,54349,18.19,73672.3,-1.73,-32.75,-33.21,0,*5A
1491847277.37,54350,18.19,73676.8,-1.73,-32.63,-33.21,0,*55
1491847278.63,54351,18.19,73678.5,-1.73,-32.75,-33.37,0,*54
1491847279.88,54352,18.19,73678.0,-1.73,-32.63,-33.21,0,*57
1491847281.14,54353,18.19,73680.0,-1.73,-32.75,-33.21,0,*51
1491847282.41,54354,18.19,73682.3,-1.75,-32.63,-33.27,0,*51
1491847283.67,54355,18.19,73678.0,-1.73,-32.75,-33.21,0,*57
1491847284.91,54356,18.19,73680.5,-1.75,-32.85,-33.37,0,*5A
1491847286.17,54357,18.19,73682.8,-1.75,-32.85,-33.27,0,*5A
1491847287.42,54358,18.13,73680.3,-1.75,-32.69,-33.27,0,*57
1491847288.66,54359,18.19,73680.5,-1.75,-32.63,-33.15,0,*5D
1491847289.92,54360,18.19,73680.8,-1.75,-32.45,-32.85,0,*5B
1491847291.13,54361,18.19,73676.8,-1.75,-32.13,-32.69,0,*5B
1491847292.37,54362,18.19,73676.0,-1.75,-32.13,-32.63,0,*52
1491847293.61,54363,18.19,73674.0,-1.75,-32.19,-32.69,0,*53
1491847294.87,54364,18.19,73674.0,-1.75,-32.29,-32.79,0,*56
1491847296.1,54365,18.19,73668.8,-1.75,-32.35,-32.85,0,*59
1491847297.31,54366,18.19,73672.8,-1.75,-32.51,-33.15,0,*50
1491847298.54,54367,18.19,73676.3,-1.75,-32.63,-33.15,0,*50
1491847299.77,54368,18.19,73674.5,-1.75,-32.35,-32.97,0,*57
1491847301.05,54369,18.19,73672.5,-1.77,-32.29,-32.85,0,*5A
1491847302.31,54370,18.19,73678.8,-1.75,-32.29,-32.85,0,*50
1491847303.57,54371,18.19,73676.3,-1.75,-32.29,-32.85,0,*51
1491847304.81,54372,18.19,73672.0,-1.75,-32.35,-32.79,0,*5C
1491847306.09,54373,18.19,73664.8,-1.73,-32.07,-32.45,0,*55
1491847307.35,54374,18.19,73662.0,-1.75,-32.19,-32.63,0,*5F
1491847308.61,54375,18.13,73664.5,-1.75,-32.19,-32.63,0,*5E
1491847309.88,54376,18.19,73670.8,-1.75,-32.07,-32.63,0,*52
1491847311.14,54377,18.19,73670.0,-1.75,-31.95,-32.45,0,*5F
1491847312.41,54378,18.19,73674.0,-1.75,-31.95,-32.45,0,*50
1491847313.66,54379,18.19,73674.5,-1.73,-32.23,-32.63,0,*5D
1491847314.92,54380,18.13,73672.0,-1.73,-32.57,-33.09,0,*55
1491847316.16,54381,18.19,73674.3,-1.75,-32.69,-33.27,0,*53
1491847317.43,54382,18.19,73678.3,-1.75,-32.63,-33.27,0,*5A
1491847318.71,54383,18.13,73676.3,-1.73,-32.63,-33.27,0,*5D
1491847319.98,54384,18.13,73674.5,-1.75,-32.85,-33.27,0,*54
1491847321.24,54385,18.19,73674.5,-1.75,-32.63,-33.27,0,*5D
1491847322.48,54386,18.19,73674.5,-1.75,-32.63,-33.15,0,*5F
1491847323.71,54387,18.19,73674.5,-1.75,-32.63,-33.15,0,*5E
1491847324.97,54388,18.19,73680.3,-1.77,-32.63,-33.15,0,*53
1491847326.26,54389,18.19,73674.0,-1.77,-32.45,-33.09,0,*5B
1491847327.51,54390,18.19,73670.8,-1.77,-32.35,-32.97,0,*52
1491847328.77,54391,18.19,73668.8,-1.77,-32.51,-32.97,0,*51
1491847330.01,54392,18.13,73668.0,-1.77,-32.51,-33.03,0,*5E
1491847331.22,54393,18.19,73674.5,-1.75,-32.51,-33.15,0,*5A
1491847332.51,54394,18.13,73672.3,-1.77,-32.19,-32.79,0,*58
1491847333.77,54395,18.13,73674.3,-1.77,-32.29,-32.69,0,*5B
1491847335.06,54396,18.19,73676.5,-1.77,-32.19,-32.63,0,*51
1491847336.35,54397,18.19,73678.3,-1.77,-32.19,-32.79,0,*5B
1491847337.62,54398,18.13,73668.5,-1.77,-32.07,-32.69,0,*5A
1491847338.91,54399,18.19,73674.5,-1.77,-32.19,-32.63,0,*5E
1491847340.12,54400,18.19,73672.8,-1.75,-32.13,-32.69,0,*5B
1491847341.36,54401,18.13,73664.0,-1.75,-32.13,-32.63,0,*50
1491847342.62,54402,18.13,73672.0,-1.75,-31.95,-32.63,0,*5E
1491847343.88,54403,18.19,73670.8,-1.75,-32.07,-32.45,0,*53
1491847345.13,54404,18.13,73668.8,-1.75,-31.95,-32.51,0,*59
1491847346.39,54405,18.19,73674.3,-1.75,-31.91,-32.45,0,*59
1491847347.68,54406,18.13,73670.5,-1.73,-31.85,-32.45,0,*59
1491847348.94,54407,18.13,73672.5,-1.73,-31.91,-32.39,0,*56
1491847350.2,54408,18.19,73674.5,-1.75,-31.91,-32.45,0,*54
1491847351.46,54409,18.19,73676.3,-1.73,-31.73,-32.23,0,*5F
1491847352.72,54410,18.19,73678.0,-1.73,-31.85,-32.39,0,*55
1491847353.95,54411,18.13,73678.0,-1.73,-32.01,-32.57,0,*53
1491847355.19,54412,18.19,73678.3,-1.71,-31.91,-32.39,0,*50
1491847356.43,54413,18.13,73674.3,-1.71,-32.01,-32.45,0,*50
1491847357.66,54414,18.19,73676.0,-1.71,-32.23,-32.79,0,*58
1491847358.91,54415,18.19,73676.8,-1.71,-32.01,-32.45,0,*56
1491847360.17,54416,18.13,73678.5,-1.71,-32.07,-32.63,0,*57
1491847361.41,54417,18.19,73680.0,-1.71,-32.13,-32.79,0,*58
1491847362.65,54418,18.19,73682.5,-1.69,-32.01,-32.69,0,*5C
1491847363.92,54419,18.13,73678.8,-1.69,-32.19,-32.69,0,*54
1491847365.15,54420,18.13,73682.3,-1.71,-32.23,-32.75,0,*53
1491847366.39,54421,18.13,73676.8,-1.71,-32.13,-32.63,0,*56
1491847367.65,54422,18.19,73686.8,-1.71,-32.07,-32.79,0,*5B
1491847368.89,54423,18.19,73682.5,-1.71,-32.23,-32.75,0,*50
1491847370.15,54424,18.13,73680.5,-1.71,-32.29,-32.79,0,*51
1491847371.42,54425,18.13,73678.0,-1.69,-32.19,-32.69,0,*5B
1491847372.68,54426,18.13,73678.8,-1.69,-32.07,-32.69,0,*57
1491847373.94,54427,18.19,73682.0,-1.71,-32.29,-32.79,0,*52
1491847375.2,54428,18.13,73680.8,-1.69,-32.23,-32.75,0,*52
1491847376.46,54429,18.13,73678.8,-1.71,-32.45,-32.97,0,*56
1491847377.7,54430,18.13,73676.3,-1.71,-32.39,-32.85,0,*56
1491847378.96,54431,18.13,73676.3,-1.69,-32.39,-32.85,0,*5E
1491847380.19,54432,18.13,73676.3,-1.69,-32.39,-33.03,0,*52
1491847381.45,54433,18.13,73678.8,-1.69,-32.35,-32.85,0,*50
1491847382.68,54434,18.13,73678.8,-1.71,-32.39,-32.97,0,*51
1491847383.92,54435,18.13,73676.8,-1.71,-32.39,-32.79,0,*50
1491847385.15,54436,18.13,73676.5,-1.71,-32.45,-33.15,0,*53
1491847386.37,54437,18.19,73678.3,-1.71,-32.57,-33.15,0,*51
1491847387.6,54438,18.13,73672.3,-1.71,-32.57,-33.09,0,*53
1491847388.82,54439,18.13,73672.3,-1.71,-32.57,-33.21,0,*58
1491847390.05,54440,18.13,73672.3,-1.71,-32.79,-33.21,0,*5A
1491847391.29,54441,18.13,73668.3,-1.71,-32.63,-33.21,0,*50
1491847392.53,54442,18.13,73668.8,-1.71,-32.63,-33.21,0,*53
1491847393.78,54443,18.13,73670.8,-1.73,-32.63,-33.21,0,*50
1491847395.04,54444,18.13,73674.5,-1.73,-32.75,-33.21,0,*50
1491847396.29,54445,18.13,73674.3,-1.75,-32.69,-33.27,0,*5C
1491847397.52,54446,18.13,73674.3,-1.73,-32.57,-33.21,0,*52
1491847398.75,54447,18.13,73676.0,-1.73,-32.57,-33.15,0,*54
1491847400.01,54448,18.13,73678.5,-1.73,-32.63,-33.21,0,*5B
1491847401.24,54449,18.13,73674.5,-1.73,-32.57,-33.21,0,*5D
1491847402.47,54450,18.13,73672.8,-1.73,-32.57,-33.21,0,*55
1491847403.71,54451,18.13,73674.8,-1.75,-32.63,-33.21,0,*55
1491847404.99,54452,18.13,73674.5,-1.73,-32.75,-33.31,0,*56
1491847406.25,54453,18.13,73674.3,-1.75,-32.97,-33.43,0,*58
1491847407.5,54454,18.13,73676.3,-1.75,-32.69,-33.27,0,*5C
1491847408.73,54455,18.13,73678.5,-1.75,-32.39,-32.97,0,*52
1491847409.97,54456,18.13,73678.3,-1.75,-32.45,-33.03,0,*56
1491847411.2,54457,18.13,73674.8,-1.75,-32.45,-33.03,0,*57
1491847412.41,54458,18.13,73672.5,-1.75,-32.51,-33.03,0,*5D
1491847413.65,54459,18.13,73670.5,-1.75,-32.45,-33.03,0,*59
1491847414.88,54460,18.13,73674.8,-1.75,-32.45,-33.03,0,*53
1491847416.09,54461,18.13,73668.3,-1.75,-32.51,-33.03,0,*57
1491847417.35,54462,18.13,73664.8,-1.75,-32.29,-32.79,0,*57
1491847418.62,54463,18.13,73664.8,-1.75,-32.19,-32.79,0,*55
1491847419.83,54464,18.13,73664.5,-1.75,-32.13,-32.69,0,*59
1491847421.09,54465,18.13,73666.3,-1.73,-32.01,-32.45,0,*53
1491847422.35,54466,18.13,73668.8,-1.73,-31.91,-32.39,0,*51
1491847423.61,54467,18.13,73670.5,-1.73,-31.91,-32.39,0,*50
1491847424.84,54468,18.13,73672.5,-1.75,-32.13,-32.63,0,*5F
1491847426.07,54469,18.19,73676.5,-1.75,-32.35,-32.97,0,*51
1491847427.32,54470,18.13,73674.3,-1.73,-32.39,-32.97,0,*53
1491847428.58,54471,18.13,73670.5,-1.73,-32.45,-32.91,0,*5F
1491847429.84,54472,18.13,73676.8,-1.73,-32.57,-33.09,0,*5F
1491847431.09,54473,18.13,73672.0,-1.73,-32.63,-33.15,0,*54
1491847432.33,54474,18.13,73676.3,-1.75,-32.63,-33.21,0,*52
1491847433.56,54475,18.13,73674.0,-1.73,-32.57,-33.15,0,*55
1491847434.82,54476,18.13,73668.0,-1.73,-32.23,-32.79,0,*5E
1491847436.1,54477,18.13,73668.0,-1.73,-32.29,-32.79,0,*55
1491847437.31,54478,18.13,73668.8,-1.75,-32.51,-33.15,0,*58
1491847438.52,54479,18.13,73668.0,-1.75,-32.69,-33.21,0,*55
1491847439.79,54480,18.13,73674.5,-1.75,-32.79,-33.27,0,*54
1491847441.06,54481,18.13,73678.8,-1.75,-32.79,-33.27,0,*55
1491847442.32,54482,18.13,73672.3,-1.73,-32.75,-33.37,0,*5D
1491847443.56,54483,18.13,73672.5,-1.75,-32.63,-33.21,0,*5A
1491847444.79,54484,18.13,73678.8,-1.75,-32.63,-33.15,0,*5A
1491847446.02,54485,18.13,73682.5,-1.75,-32.35,-32.97,0,*53
1491847447.27,54486,18.13,73678.0,-1.73,-32.23,-32.63,0,*5A
1491847448.48,54487,18.13,73676.8,-1.75,-32.13,-32.69,0,*54
1491847449.74,54488,18.13,73672.3,-1.75,-32.29,-32.85,0,*50
1491847450.97,54489,18.13,73670.0,-1.75,-32.35,-32.97,0,*5F
1491847452.22,54490,18.13,73670.8,-1.73,-32.45,-33.15,0,*5D
1491847453.44,54491,18.13,73674.3,-1.75,-32.69,-33.21,0,*53
1491847454.68,54492,18.13,73672.5,-1.75,-32.85,-33.37,0,*55
1491847455.94,54493,18.13,73672.8,-1.75,-32.97,-33.43,0,*54
1491847457.24,54494,18.13,73676.5,-1.77,-32.79,-33.43,0,*51
1491847458.5,54495,18.13,73672.0,-1.75,-32.85,-33.27,0,*53
1491847459.8,54496,18.13,73670.8,-1.77,-32.85,-33.27,0,*52
1491847461.06,54497,18.13,73674.0,-1.77,-32.79,-33.37,0,*51
1491847462.33,54498,18.13,73678.0,-1.77,-32.79,-33.37,0,*5E
1491847463.54,54499,18.13,73682.3,-1.81,-32.91,-33.37,0,*50
1491847464.74,54500,18.13,73682.5,-1.81,-32.91,-33.37,0,*51
1491847466.03,54501,18.13,73680.0,-1.77,-32.19,-32.85,0,*51
1491847467.29,54502,18.13,73668.8,-1.77,-32.35,-32.79,0,*5F
1491847468.53,54503,18.13,73674.8,-1.77,-32.51,-33.03,0,*50
1491847469.79,54504,18.13,73682.8,-1.81,-32.75,-33.31,0,*59
1491847471.05,54505,18.13,73678.5,-1.81,-32.79,-33.31,0,*54
1491847472.31,54506,18.13,73672.5,-1.81,-32.75,-33.27,0,*5C
1491847473.54,54507,18.13,73672.8,-1.81,-32.75,-33.15,0,*5C
1491847474.75,54508,18.13,73674.5,-1.81,-32.39,-32.91,0,*56
1491847476.01,54509,18.13,73672.3,-1.81,-32.19,-32.75,0,*5F
1491847477.27,54510,18.13,73670.0,-1.81,-32.29,-32.75,0,*54
1491847478.53,54511,18.13,73672.8,-1.77,-32.19,-32.69,0,*52
1491847479.76,54512,18.13,73674.8,-1.77,-32.35,-33.03,0,*52
1491847480.99,54513,18.13,73670.8,-1.81,-32.63,-33.15,0,*5E
1491847482.24,54514,18.13,73674.8,-1.81,-32.29,-32.85,0,*5F
1491847483.54,54515,18.13,73674.8,-1.77,-32.19,-32.85,0,*54
1491847484.82,54516,18.13,73676.0,-1.77,-32.29,-32.79,0,*57
1491847486.09,54517,18.13,73672.0,-1.77,-32.07,-32.69,0,*5B
1491847487.35,54518,18.13,73674.0,-1.77,-31.91,-32.35,0,*51
1491847488.61,54519,18.13,73676.3,-1.77,-31.79,-32.29,0,*5B
1491847489.87,54520,18.13,73676.0,-1.77,-31.79,-32.29,0,*51
1491847491.11,54521,18.13,73680.3,-1.75,-31.91,-32.35,0,*59
1491847492.37,54522,18.13,73682.5,-1.73,-32.13,-32.75,0,*51
1491847493.61,54523,18.13,73682.0,-1.75,-32.13,-32.79,0,*5A
1491847494.87,54524,18.13,73686.5,-1.75,-32.29,-32.85,0,*57
1491847496.1,54525,18.13,73686.0,-1.75,-32.35,-32.85,0,*5B
1491847497.33,54526,18.13,73686.0,-1.75,-32.35,-32.85,0,*58
1491847498.59,54527,18.19,73688.5,-1.75,-32.45,-32.97,0,*5D
1491847499.85,54528,18.13,73684.0,-1.75,-32.29,-32.85,0,*5B
1491847501.08,54529,18.13,73686.5,-1.75,-32.13,-32.63,0,*5B
1491847502.32,54530,18.13,73682.5,-1.75,-32.19,-32.69,0,*53
1491847503.58,54531,18.13,73684.0,-1.73,-32.13,-32.63,0,*54
1491847504.86,54532,18.13,73684.8,-1.73,-32.07,-32.45,0,*56
1491847506.1,54533,18.13,73682.0,-1.75,-32.13,-32.63,0,*50
1491847507.33,54534,18.13,73682.3,-1.71,-32.13,-32.63,0,*53
1491847508.59,54535,18.13,73684.3,-1.73,-32.23,-32.79,0,*58
1491847509.84,54536,18.13,73686.0,-1.73,-32.23,-32.79,0,*5B
1491847511.12,54537,18.13,73684.0,-1.73,-32.45,-32.97,0,*5A
1491847512.4,54538,18.13,73680.8,-1.73,-32.45,-32.97,0,*55
1491847513.61,54539,18.13,73678.8,-1.75,-32.51,-33.15,0,*5C
1491847514.86,54540,18.13,73682.3,-1.73,-32.45,-33.15,0,*51
1491847516.14,54541,18.13,73678.5,-1.73,-32.45,-33.09,0,*5D
1491847517.42,54542,18.13,73678.8,-1.73,-32.45,-33.09,0,*5E
1491847518.65,54543,18.13,73682.0,-1.75,-32.45,-33.03,0,*53
1491847519.93,54544,18.13,73676.3,-1.73,-32.29,-32.79,0,*54
1491847521.17,54545,18.13,73678.0,-1.75,-32.19,-32.69,0,*51
1491847522.42,54546,18.13,73676.5,-1.75,-31.91,-32.51,0,*5A
1491847523.67,54547,18.13,73676.0,-1.73,-32.23,-32.79,0,*5D
1491847524.92,54548,18.13,73676.5,-1.73,-32.39,-32.97,0,*59
1491847526.18,54549,18.13,73674.8,-1.73,-32.23,-32.75,0,*5F
1491847527.46,54550,18.13,73676.0,-1.73,-32.29,-32.79,0,*51
1491847528.74,54551,18.13,73668.8,-1.73,-32.29,-32.79,0,*50
1491847530.0,54552,18.13,73670.8,-1.75,-32.29,-32.85,0,*56
1491847531.23,54553,18.13,73674.3,-1.71,-32.13,-32.63,0,*52
1491847532.47,54554,18.13,73670.5,-1.71,-32.23,-32.75,0,*51
1491847533.7,54555,18.13,73672.8,-1.73,-32.13,-32.57,0,*51
1491847534.96,54556,18.13,73668.5,-1.71,-31.85,-32.29,0,*55
1491847536.2,54557,18.13,73670.5,-1.71,-31.85,-32.23,0,*5E
1491847537.46,54558,18.13,73672.0,-1.71,-31.73,-32.29,0,*52
1491847538.7,54559,18.13,73672.0,-1.71,-31.91,-32.39,0,*5E
1491847539.96,54560,18.13,73674.5,-1.71,-31.85,-32.29,0,*50
1491847541.2,54561,18.13,73674.3,-1.69,-31.79,-32.39,0,*5A
1491847542.45,54562,18.13,73672.0,-1.69,-32.19,-32.57,0,*54
1491847543.69,54563,18.13,73670.3,-1.71,-32.23,-32.79,0,*59
1491847544.92,54564,18.13,73672.8,-1.69,-32.39,-32.91,0,*5A
1491847546.16,54565,18.13,73670.3,-1.69,-32.39,-32.91,0,*5B
1491847547.39,54566,18.13,73674.0,-1.69,-32.51,-33.03,0,*5C
1491847548.6,54567,18.13,73670.5,-1.71,-32.35,-33.03,0,*56
1491847549.86,54568,18.13,73668.8,-1.69,-32.39,-32.85,0,*53
1491847551.09,54569,18.13,73668.8,-1.69,-32.39,-33.03,0,*5D
1491847552.33,54570,18.13,73668.0,-1.71,-32.23,-32.85,0,*58
1491847553.56,54571,18.13,73674.3,-1.71,-32.23,-32.79,0,*5A
1491847554.82,54572,18.13,73672.5,-1.71,-32.29,-32.75,0,*5F
1491847556.09,54573,18.13,73676.8,-1.69,-32.07,-32.69,0,*56
1491847557.33,54574,18.13,73672.3,-1.71,-32.23,-32.75,0,*53
1491847558.59,54575,18.13,73670.3,-1.71,-32.29,-32.79,0,*54
1491847559.88,54576,18.13,73674.3,-1.69,-32.19,-32.75,0,*51
1491847561.14,54577,18.13,73672.8,-1.69,-32.35,-32.75,0,*5E
1491847562.37,54578,18.13,73668.0,-1.71,-32.39,-32.97,0,*58
1491847563.63,54579,18.13,73674.5,-1.69,-32.07,-32.57,0,*51
1491847564.89,54580,18.13,73674.0,-1.69,-32.19,-32.69,0,*55
1491847566.12,54581,18.13,73668.5,-1.71,-32.29,-32.91,0,*59
1491847567.39,54582,18.13,73668.0,-1.69,-32.07,-32.69,0,*58
1491847568.6,54583,18.13,73672.8,-1.67,-32.01,-32.57,0,*5C
1491847569.84,54584,18.13,73676.3,-1.69,-32.01,-32.51,0,*53
1491847571.08,54585,18.13,73672.8,-1.69,-32.01,-32.57,0,*54
1491847572.37,54586,18.13,73668.3,-1.69,-32.19,-32.75,0,*5E
1491847573.58,54587,18.13,73668.0,-1.67,-32.39,-32.91,0,*59
1491847574.79,54588,18.13,73670.5,-1.67,-32.39,-32.91,0,*56
1491847576.03,54589,18.13,73670.0,-1.67,-32.39,-33.09,0,*57
1491847577.24,54590,18.13,73666.8,-1.67,-32.57,-33.15,0,*5A
1491847578.51,54591,18.13,73664.0,-1.69,-32.75,-33.37,0,*55
1491847579.77,54592,18.13,73666.8,-1.69,-32.69,-33.27,0,*5A
1491847581.04,54593,18.13,73664.3,-1.71,-32.85,-33.49,0,*58
1491847582.27,54594,18.13,73664.8,-1.71,-32.97,-33.55,0,*51
1491847583.53,54595,18.13,73670.5,-1.71,-32.75,-33.31,0,*5E
1491847584.77,54596,18.13,73666.0,-1.71,-32.63,-33.21,0,*5B
1491847586.01,54597,18.13,73666.3,-1.71,-32.57,-33.31,0,*5C
1491847587.24,54598,18.13,73664.8,-1.71,-32.63,-33.21,0,*55
1491847588.48,54599,18.13,73664.5,-1.69,-32.57,-33.15,0,*5D
1491847589.69,54600,18.13,73666.5,-1.71,-32.57,-33.21,0,*50
1491847590.92,54601,18.13,73668.3,-1.73,-32.57,-33.21,0,*53
1491847592.18,54602,18.13,73668.8,-1.73,-32.63,-33.21,0,*57
1491847593.46,54603,18.13,73668.8,-1.73,-32.63,-33.31,0,*57
1491847594.72,54604,18.13,73672.8,-1.73,-32.63,-33.21,0,*51
1491847595.95,54605,18.13,73678.3,-1.73,-32.57,-33.21,0,*57
1491847597.18,54606,18.13,73676.0,-1.75,-32.45,-33.15,0,*56
1491847598.41,54607,18.13,73672.0,-1.75,-32.45,-33.03,0,*50
1491847599.68,54608,18.13,73672.0,-1.75,-32.63,-33.27,0,*5D
1491847600.94,54609,18.13,73668.8,-1.75,-32.63,-33.27,0,*5C
1491847602.21,54610,18.13,73670.5,-1.75,-32.63,-33.27,0,*54
1491847603.43,54611,18.13,73666.8,-1.75,-32.69,-33.37,0,*5E
1491847604.7,54612,18.13,73666.5,-1.75,-32.79,-33.43,0,*5F
1491847605.94,54613,18.13,73672.5,-1.75,-32.63,-33.37,0,*56
1491847607.2,54614,18.13,73676.5,-1.77,-32.63,-33.21,0,*54
1491847608.44,54615,18.13,73676.5,-1.77,-32.51,-33.21,0,*54
1491847609.73,54616,18.13,73668.5,-1.77,-32.63,-33.27,0,*50
1491847610.98,54617,18.13,73668.0,-1.77,-32.51,-32.97,0,*5A
1491847612.22,54618,18.13,73668.5,-1.77,-32.51,-33.21,0,*59
1491847613.48,54619,18.13,73670.8,-1.77,-32.45,-33.03,0,*5D
1491847614.76,54620,18.13,73672.0,-1.77,-32.29,-32.97,0,*51
1491847616.05,54621,18.13,73670.8,-1.77,-32.19,-32.79,0,*53
1491847617.34,54622,18.13,73668.8,-1.77,-32.29,-32.85,0,*50
1491847618.6,54623,18.13,73668.8,-1.75,-31.95,-32.45,0,*5B
1491847619.84,54624,18.13,73664.8,-1.75,-31.73,-32.35,0,*53
1491847621.07,54625,18.13,73668.5,-1.73,-31.67,-32.23,0,*56
1491847622.28,54626,18.13,73670.0,-1.75,-31.79,-32.35,0,*5B
1491847623.56,54627,18.13,73668.8,-1.73,-31.85,-32.29,0,*52
1491847624.84,54628,18.13,73670.3,-1.73,-31.73,-32.29,0,*54
1491847626.1,54629,18.13,73672.3,-1.73,-31.51,-32.23,0,*5F
1491847627.33,54630,18.13,73668.8,-1.71,-31.57,-32.01,0,*53
1491847628.57,54631,18.13,73670.0,-1.71,-31.57,-32.13,0,*51
1491847629.83,54632,18.13,73670.0,-1.69,-31.61,-32.23,0,*5D
1491847631.04,54633,18.13,73670.0,-1.71,-31.67,-32.23,0,*53
1491847632.32,54634,18.13,73668.8,-1.69,-31.51,-32.19,0,*51
1491847633.59,54635,18.13,73670.3,-1.69,-31.33,-31.95,0,*53
1491847634.85,54636,18.13,73668.5,-1.67,-31.51,-32.07,0,*52
1491847636.06,54637,18.13,73668.8,-1.67,-31.79,-32.39,0,*54
1491847637.3,54638,18.13,73670.5,-1.65,-31.79,-32.35,0,*55
1491847638.51,54639,18.13,73670.3,-1.67,-31.79,-32.39,0,*5A
1491847639.79,54640,18.13,73672.8,-1.65,-31.61,-32.29,0,*5E
1491847641.06,54641,18.13,73670.8,-1.67,-31.51,-32.07,0,*52
1491847642.29,54642,18.13,73668.3,-1.65,-31.45,-32.01,0,*50
1491847643.58,54643,18.13,73670.3,-1.65,-31.11,-31.57,0,*50
1491847644.87,54644,18.13,73664.5,-1.65,-31.11,-31.61,0,*52
1491847646.1,54645,18.13,73658.0,-1.63,-31.17,-31.73,0,*50
1491847647.37,54646,18.13,73658.0,-1.61,-31.73,-32.39,0,*5E
1491847648.58,54647,18.13,73656.5,-1.59,-31.33,-32.01,0,*5B
1491847649.83,54648,18.13,73658.5,-1.61,-31.67,-32.29,0,*54
1491847651.05,54649,18.13,73654.8,-1.59,-31.79,-32.39,0,*50
1491847652.29,54650,18.13,73648.8,-1.59,-31.85,-32.35,0,*57
1491847653.52,54651,18.13,73646.5,-1.59,-31.91,-32.57,0,*57
1491847654.79,54652,18.13,73668.0,-1.59,-32.19,-32.85,0,*58
1491847656.03,54653,18.13,73660.3,-1.59,-32.23,-32.85,0,*50
1491847657.24,54654,18.13,73660.8,-1.59,-32.23,-32.91,0,*52
1491847658.51,54655,18.13,73658.3,-1.59,-32.19,-32.75,0,*50
1491847659.78,54656,18.13,73664.0,-1.59,-32.19,-32.75,0,*53
1491847660.99,54657,18.13,73668.8,-1.59,-32.23,-32.91,0,*51
1491847662.21,54658,18.13,73670.3,-1.55,-32.01,-32.51,0,*5E
1491847663.45,54659,18.13,73670.3,-1.59,-31.85,-32.57,0,*5A
1491847664.66,54660,18.13,73670.5,-1.59,-32.01,-32.57,0,*5F
1491847665.87,54661,18.13,73668.0,-1.59,-32.01,-32.57,0,*5E
1491847667.15,54662,18.06,73664.0,-1.59,-32.07,-32.75,0,*5B
1491847668.38,54663,18.13,73666.0,-1.59,-32.23,-32.85,0,*53
1491847669.63,54664,18.13,73666.5,-1.59,-32.19,-32.69,0,*5F
1491847670.85,54665,18.13,73664.0,-1.59,-32.01,-32.69,0,*57
1491847672.06,54666,18.13,73670.0,-1.55,-32.01,-32.57,0,*55
1491847673.3,54667,18.13,73668.8,-1.59,-32.23,-32.75,0,*58
1491847674.57,54668,18.13,73668.5,-1.59,-32.19,-32.85,0,*51
1491847675.81,54669,18.13,73666.5,-1.59,-32.23,-32.75,0,*56
1491847677.05,54670,18.13,73670.8,-1.59,-32.57,-33.09,0,*57
1491847678.29,54671,18.13,73670.0,-1.59,-32.57,-33.27,0,*5A
1491847679.56,54672,18.13,73674.8,-1.59,-32.75,-33.31,0,*5E
1491847680.83,54673,18.13,73678.8,-1.59,-32.75,-33.31,0,*5F
1491847682.06,54674,18.13,73674.5,-1.59,-32.35,-32.85,0,*52
1491847683.33,54675,18.13,73672.8,-1.59,-32.19,-32.75,0,*52
1491847684.58,54676,18.13,73672.3,-1.59,-32.07,-32.69,0,*53
1491847685.85,54677,18.13,73672.0,-1.59,-32.07,-32.75,0,*5F
1491847687.09,54678,18.13,73674.5,-1.59,-32.39,-32.97,0,*51
1491847688.35,54679,18.13,73672.5,-1.59,-32.75,-33.31,0,*55
1491847689.6,54680,18.13,73674.3,-1.59,-32.69,-33.31,0,*5E
1491847690.87,54681,18.13,73672.3,-1.59,-32.85,-33.43,0,*58
1491847692.14,54682,18.13,73674.8,-1.59,-32.75,-33.43,0,*54
1491847693.38,54683,18.13,73674.8,-1.59,-32.51,-33.09,0,*5D
1491847694.61,54684,18.13,73680.0,-1.59,-32.35,-32.97,0,*5E
1491847695.84,54685,18.13,73676.3,-1.59,-32.23,-32.97,0,*58
1491847697.05,54686,18.13,73678.5,-1.59,-32.35,-32.91,0,*5A
1491847698.26,54687,18.13,73676.5,-1.59,-32.23,-32.91,0,*5C
1491847699.47,54688,18.13,73678.5,-1.59,-32.23,-32.91,0,*53